TITAN 3C TRANSTAGE DEB, 1684

Orbit data source: Space-Track

TITAN 3C TRANSTAGE DEB, 1684 is space debris in LEO originally from a launch on Fri, 15 Oct 1965 UTC launched from the Air Force Eastern Test Range (AFETR). Debris objects in space refer to the collection of defunct objects orbiting the Earth. Examples of debris include non-operational satellites, rocket bodies, and fragments generated from explosions, collisions, or faulty payload assembly.

Loading next visibility...
Identifier
1684, 1965-082AX
Orbit
LEO
Last TLE update
2 days ago
Origin
Manufacturer
Unknown
Mission
Spacecraft
Bus & Motor
Unknown
Mass
Unknown
Launch date (UTC)
1965-10-15 (60 years ago)
Launch vehicle
Unknown
Launch site
Air Force Eastern Test Range (AFETR)
Object type
Payload
Rocket body
Debris
Shape & HBR
Unknown
Radar Cross Section
1.200 m², Large (>1 m²)

Expand to show TLE details & history

TLE from 2 days ago
0 TITAN 3C TRANSTAGE DEB
1  1684U 65082AX  25108.18325843  .00004074  00000-0  10938-2 0  9998
2  1684  32.2139  79.6366 0170501 336.2234  23.0603 14.38733379 81220
Epoch: 2025-04-18T04:23Z
Definitive object data (Epoch: 2025-04-18T04:23:53.528Z)
Latitude
0.00001°
Longitude
167.11912°
Altitude
649.69 km
Speed
7.594 km/s
True Right ascension
05h 18m 32s
True Declination
0° 00' 00"
Sunlit
Object was in daylight at TLE epoch
Visualization TLE readout
Latitude
-12.09525°
Longitude
137.49912°
Altitude
645.552 km
Speed
7.599 km/s
Apparent Right ascension
00h 46m 45s
Apparent Declination
-61° 47' 02"
Sunlit
Object is in daylight
Visualization observer readout
Local Sidereal Time
04:48:23
Azimuth
206.471° SW
Elevation
-22.727°
Doppler factor
1
Orbital elements
Apogee altitude
888.044 km
Perigee altitude
644.42 km
Semi-major axis
7,144.369 km
Eccentricity
0.0170501
Inclination
32.2139°
RAAN
79.6366°
Arg. of periapsis
336.2234°
True anomaly
23.84087°
Mean anomaly
23.0603°
Eccentric anomaly
23.44904°
Mean motion
3.59416 °/min
BSTAR
0.0010938
Orbital period
100.16 mins
Loading maneuver chart data...
Loading SW <> Apogee altitude chart data...

TITAN 3C TRANSTAGE DEB Visibility forecast

Observer location: undefined°, undefined°

Span
Click to sort rows by Start time (UTC) header in descending order
Start Az.
Max El. time (UTC)
Max El. Az.
Max El.
End time (UTC)
End Az.
7 mins2025-04-20 01:36:51.459Z207.349° SW2025-04-20 01:39:51.459Z164.386° S21.959°2025-04-20 01:43:51.459Z111.923° ESE
8 mins2025-04-20 03:21:51.459Z236.106° WSW2025-04-20 03:25:51.459Z168.72° S30.44°2025-04-20 03:29:51.459Z115.347° SE
8 mins2025-04-20 05:07:51.459Z242.547° WSW2025-04-20 05:10:51.459Z199.228° SSW26.877°2025-04-20 05:15:51.459Z134.116° SE
5 mins2025-04-20 06:54:51.459Z226.936° WSW2025-04-20 06:56:51.459Z204.032° SW14.85°2025-04-20 06:59:51.459Z172.82° S
|